Weather History for KJDN - July, 2013

Change the Weather History Date:

Sunday, July 14, 2013

  Actual Average Record
Temperature  
Mean Temperature 64 °F 70 °F  
Max Temperature 78 °F 86 °F 109 °F (2002)
Min Temperature 49 °F 54 °F 37 °F (1944)
Degree Days  
Heating Degree Days 1 1  
Month to date heating degree days 1 15  
Since 1 June heating degree days 96 140  
Since 1 July heating degree days 1 15  
Cooling Degree Days 0 6  
Month to date cooling degree days 106 65  
Year to date cooling degree days 166 119  
Since 1 June cooling degree days 154 113  
Growing Degree Days 14 (Base 50)    
Moisture  
Dew Point 50 °F    
Average Humidity 65    
Maximum Humidity 93    
Minimum Humidity 36    
Precipitation  
Precipitation 0.00 in 0.05 in 2.52 in (1989)
Month to date precipitation 0.91 1.10  
Year to date precipitation 11.93 7.96  
Snow  
Snow 0.00 in - - ()
Month to date snowfall 0.0  
Since 1 June snowfall 0.0  
Since 1 July snowfall 0.0  
Snow Depth 0.00 in    
Sea Level Pressure  
Sea Level Pressure 30.18 in    
Wind  
Wind Speed 9 mph (East)    
Max Wind Speed 22 mph    
Max Gust Speed 29 mph    
T = Trace of Precipitation, MM = Missing Value Source: NWS Daily Summary

Daily Weather History Graph

Daily Weather History Graph

Search for Another Location

Airport or City:

Trip Planner

Search our weather history database for the weather conditions in past years. The results will help you decide how hot, cold, wet, or windy it might be!

Date:

Astronomy

Jul. 14, 2013 Rise Set
Actual Time 5:26 AM MDT 9:00 PM MDT
Civil Twilight 4:47 AM MDT 9:39 PM MDT
Nautical Twilight 3:55 AM MDT 10:30 PM MDT
Astronomical Twilight 2:45 AM MDT 11:39 PM MDT
Moon 12:16 PM MDT (7/14) 11:42 PM MDT (7/14)
Length of Visible Light 16h 51m
Length of Day
15h 34m
Waxing Crescent, 35% of the Moon is Illuminated
Jul 14
Waxing Crescent
Jul 15
First Quarter
Jul 22
Full
Jul 29
Last Quarter
Aug 6
New

Hourly Weather History & Observations

Time (MDT) Temp. Dew Point Humidity Pressure Visibility Wind Dir Wind Speed Gust Speed Precip Events Conditions
12:48 AM 59.0 °F 50.0 °F 72% 30.20 in - East 3.5 mph - N/A   Unknown
1:48 AM 55.9 °F 48.9 °F 77% 30.20 in - Calm Calm - N/A   Unknown
2:48 AM 52.0 °F 48.0 °F 86% 30.22 in - Calm Calm - N/A   Unknown
3:48 AM 50.0 °F 46.9 °F 89% 30.23 in - Calm Calm - N/A   Unknown
4:48 AM 50.0 °F 46.9 °F 89% 30.24 in - Calm Calm - N/A   Unknown
5:48 AM 50.0 °F 48.0 °F 93% 30.24 in - Calm Calm - N/A   Unknown
6:48 AM 54.0 °F 50.0 °F 86% 30.25 in - East 3.5 mph - N/A   Unknown
7:48 AM 59.0 °F 51.1 °F 75% 30.25 in - ENE 5.8 mph - N/A   Unknown
8:48 AM 63.0 °F 48.9 °F 60% 30.25 in - East 9.2 mph - N/A   Unknown
9:48 AM 64.0 °F 48.9 °F 58% 30.25 in - ESE 11.5 mph - N/A   Unknown
10:48 AM 66.9 °F 50.0 °F 54% 30.25 in - East 10.4 mph 19.6 mph N/A   Unknown
11:48 AM 69.1 °F 51.1 °F 53% 30.23 in - East 16.1 mph - N/A   Unknown
12:48 PM 70.0 °F 50.0 °F 49% 30.22 in - East 13.8 mph 23.0 mph N/A   Unknown
1:48 PM 72.0 °F 50.0 °F 46% 30.21 in - East 12.7 mph 23.0 mph N/A   Unknown
2:48 PM 75.0 °F 48.9 °F 40% 30.18 in - East 17.3 mph 27.6 mph N/A   Unknown
3:48 PM 77.0 °F 51.1 °F 40% 30.15 in - East 16.1 mph 25.3 mph N/A   Unknown
4:48 PM 75.9 °F 48.0 °F 37% 30.16 in - SE 12.7 mph - N/A   Unknown
5:48 PM 77.0 °F 48.9 °F 37% 30.13 in - ESE 10.4 mph - N/A   Unknown
6:48 PM 75.9 °F 48.9 °F 38% 30.10 in - ESE 18.4 mph - N/A   Unknown
7:48 PM 75.0 °F 50.0 °F 41% 30.08 in - SE 15.0 mph 18.4 mph N/A   Unknown
8:48 PM 71.1 °F 51.1 °F 49% 30.09 in - ESE 9.2 mph - N/A   Unknown
9:48 PM 68.0 °F 53.1 °F 59% 30.10 in - East 10.4 mph - N/A   Unknown
10:48 PM 64.9 °F 52.0 °F 63% 30.10 in - East 10.4 mph - N/A   Unknown
11:48 PM 63.0 °F 52.0 °F 67% 30.09 in - ESE 11.5 mph - N/A   Unknown